CDT,Max TemperatureF,Mean TemperatureF,Min TemperatureF,Max Dew PointF,MeanDew PointF,Min DewpointF,Max Humidity, Mean Humidity, Min Humidity, Max Sea Level PressureIn, Mean Sea Level PressureIn, Min Sea Level PressureIn, Max VisibilityMiles, Mean VisibilityMiles, Min VisibilityMiles, Max Wind SpeedMPH, Mean Wind SpeedMPH, Max Gust SpeedMPH,PrecipitationIn, CloudCover, Events, WindDirDegrees
2013-9-1,84,76,68,70,68,64,94,80,51,29.82,29.79,29.75,10,8,0,12,4,18,0.00,4,Fog-Rain,330
2013-9-2,76,72,66,66,62,56,83,73,65,29.99,29.90,29.80,20,13,10,14,10,23,0.00,4,,7
2013-9-3,74,65,57,59,55,50,93,69,47,30.10,30.04,29.98,20,14,10,12,7,17,0.00,4,,12
2013-9-4,83,68,53,61,56,50,94,76,32,30.15,30.11,30.06,15,11,5,12,3,,0.00,1,,248
2013-9-5,73,67,61,64,56,45,94,71,43,30.26,30.20,30.12,20,13,10,21,4,23,0.00,1,,39
2013-9-6,84,80,59,64,56,46,81,62,27,30.24,30.15,29.91,20,14,10,10,5,,0.00,2,,145
2013-9-7,87,76,67,68,64,57,88,73,37,30.05,29.99,29.90,15,10,10,14,3,21,0.00,3,,209
2013-9-8,81,74,70,69,67,64,91,79,69,30.03,29.98,29.95,10,8,5,14,7,,0.00,3,,47
2013-9-9,95,82,68,70,67,64,88,68,41,29.98,29.92,29.84,10,10,7,14,7,,0.00,0,,178
2013-9-10,96,86,77,70,64,57,74,53,28,30.04,29.99,29.91,10,10,10,20,7,29,0.00,0,,219
2013-9-11,94,82,71,72,67,63,88,70,36,30.07,30.02,29.99,15,10,7,14,5,23,0.00,3,,210
2013-9-12,84,75,65,69,61,45,91,70,26,30.07,30.00,29.93,20,13,7,32,7,39,0.04,5,Rain,323
2013-9-13,67,62,58,53,48,44,72,58,46,30.16,30.12,30.07,20,14,10,21,15,32,0.00,5,,12
2013-9-14,72,56,42,47,42,36,93,64,27,30.21,30.13,30.06,20,14,10,9,2,,0.00,2,,171
2013-9-15,65,60,54,61,51,42,94,74,56,30.15,30.07,30.00,20,9,2,8,3,,0.01,5,Rain,152
2013-9-16,64,60,55,58,51,46,90,72,52,30.36,30.28,30.16,20,14,7,18,9,30,0.01,5,Rain,39
2013-9-17,71,61,51,52,48,46,82,67,46,30.35,30.27,30.14,15,12,10,12,6,,0.00,3,,127
2013-9-18,82,71,60,66,57,47,94,71,48,30.14,30.06,29.95,10,9,1,12,5,28,1.52,5,Rain-Thunderstorm,161
2013-9-19,80,73,66,72,67,64,94,82,65,29.99,29.92,29.84,10,9,2,17,8,29,0.00,5,Rain-Thunderstorm,150
2013-9-20,77,70,60,70,61,50,84,72,54,29.86,29.83,29.79,15,11,10,15,7,26,0.00,4,Rain,245
2013-9-21,66,61,55,53,49,45,87,69,46,29.95,29.87,29.81,20,13,10,17,9,23,0.00,2,,315
2013-9-22,65,70,52,50,46,36,88,69,15,30.07,30.00,29.69,20,14,10,16,6,24,0.00,3,,27
2013-9-23,67,58,48,54,46,41,82,69,49,30.13,30.08,30.05,20,13,10,10,7,,0.00,1,,104
2013-9-24,70,60,50,54,48,45,89,69,46,30.08,30.02,29.95,20,13,10,14,9,17,0.00,0,,109
2013-9-25,69,58,48,58,52,46,94,78,56,29.98,29.96,29.94,10,10,10,15,5,,0.00,0,,68
2013-9-26,72,58,46,58,52,45,94,80,56,30.10,30.05,29.97,20,9,2,10,3,,0.00,0,,74
2013-9-27,81,64,49,66,48,39,93,64,24,30.18,30.13,30.09,20,12,0,10,4,,0.00,0,Fog,131
2013-9-28,84,70,57,55,53,50,82,58,33,30.12,30.03,29.94,20,11,10,14,8,26,0.00,3,,158
2013-9-29,74,60,47,64,53,46,94,79,49,30.07,30.01,29.94,20,12,4,21,8,28,0.18,5,Rain,329
2013-9-30,75,60,44,54,48,39,94,76,27,30.02,29.97,29.90,20,11,0,7,1,,0.00,1,Fog,164